Regional Weather Roundup
Issued by NWS

Home | Current Version | Previous Version | Text Only | Print | Product List | Glossary Off
Versions: 1 2 3 4 5 6 7 8 9 10 11 12 13 14 15 16 17 18 19 20 21 22 23 24 25 26 27 28 29 30 31 32 33 34 35 36 37 38 39 40 41 42 43 44 45 46 47 48 49 50

620
ASUS43 KBIS 221910
RWRND

NORTH DAKOTA REGIONAL WEATHER ROUNDUP
NATIONAL WEATHER SERVICE BISMARCK ND
100 PM CST MON JAN 22 2018

NOTE: "FAIR" INDICATES FEW OR NO CLOUDS BELOW 12,000 FEET WITH NO
SIGNIFICANT WEATHER AND/OR OBSTRUCTIONS TO VISIBILITY.


NDZ001>003-009>011-017-222000-
NORTHWEST NORTH DAKOTA

CITY           SKY/WX    TMP DP  RH WIND       PRES   REMARKS
WILLISTON      SUNNY     22  16  78 SW7       30.00F WCI  13
MINOT          FOG       18  16  92 S12       30.03F VSB 1/2 WCI   5
$$

NDZ018>021-031>035-040>046-222000-
SOUTHWEST NORTH DAKOTA

CITY           SKY/WX    TMP DP  RH WIND       PRES   REMARKS
BISMARCK       CLOUDY    22  20  92 W6        30.04F FOG     WCI  14
DICKINSON      SUNNY     30  19  63 W8        29.95F
GARRISON         N/A     14  11  87 SE5       30.02F WCI   6
HETTINGER ARPT SUNNY     36  21  54 NW10      29.97F
$$

NDZ004>008-012>016-024-026-027-054-222000-
NORTHEAST NORTH DAKOTA

CITY           SKY/WX    TMP DP  RH WIND       PRES   REMARKS
GRAND FORKS    CLOUDY    26  22  84 NE14      30.04F WCI  14
GRND FRKS AFB  MIX PCPN  25  21  83 NE13      30.04F WCI  14
DEVILS LAKE    CLOUDY    22  20  92 N7        30.04F WCI  13
$$

NDZ022-023-025-028>030-036>039-047>053-222000-
SOUTHEAST NORTH DAKOTA

CITY           SKY/WX    TMP DP  RH WIND       PRES   REMARKS
FARGO          CLOUDY    28  24  85 NE18G26   29.96F WCI  15
JAMESTOWN      CLOUDY    22  20  92 N15       30.00F WCI   9
$$





USA.gov is the U.S. government's official web portal to all federal, state and local government web resources and services.